Stations météo

Publicité
Abbeville, France (7005): Température de l'air & dewpoint: 20.03.2019 17:00:00 - 26.03.2019 17:00:00 (CET)Abbeville, France (7005): Température de l'air 5cm: 20.03.2019 17:00:00 - 26.03.2019 17:00:00 (CET)Abbeville, France (7005): Température de l'air -20cm & Température de l'air -100cm: 20.03.2019 17:00:00 - 26.03.2019 17:00:00 (CET)Abbeville, France (7005): Vitesse du vent & gusts: 20.03.2019 17:00:00 - 26.03.2019 17:00:00 (CET)Abbeville, France (7005): Direction du vent: 20.03.2019 17:00:00 - 26.03.2019 17:00:00 (CET)Abbeville, France (7005): reduced air pressure: 20.03.2019 17:00:00 - 26.03.2019 17:00:00 (CET)Abbeville, France (7005): visibility: 20.03.2019 17:00:00 - 26.03.2019 17:00:00 (CET)Abbeville, France (7005): Ensoleillement: 20.03.2019 17:00:00 - 26.03.2019 17:00:00 (CET)Abbeville, France (7005): Quantités de précipitations: 20.03.2019 17:00:00 - 26.03.2019 17:00:00 (CET)
Date & Time tt [°C] td [°C] tt 5cm [°C] tt -20cm [°C] tt -100cm [°C] ff [km/h] ff [knt] fx [km/h] fx [knt] dd ppp [hPa] vv [km] sd [min] rr [mm]
26.03.2019 17:00:00 10,1 3,4 11,2 9,2 8,6 17 9 31 17 NW 1033,0 20 41 0,0
26.03.2019 16:00:00 10,5 3,5 12,5 8,9 8,6 22 12 30 16 NW 1033,0 19 58 0,0
26.03.2019 15:00:00 10,4 2,7 11,7 8,5 8,6 19 10 38 21 WNW 1033,5 20 51 0,0
26.03.2019 14:00:00 11,1 3,1 13,1 8,1 8,6 18 10 28 15 WNW 1033,9 19 57 0,0
26.03.2019 13:00:00 10,8 4,0 12,8 7,8 8,6 16 8 28 15 WNW 1034,0 18 41 0,0
26.03.2019 12:00:00 10,6 4,1 13,6 7,6 8,6 12 6 20 11 WNW 1034,6 19 56 0,0
26.03.2019 11:00:00 9,4 4,0 11,8 7,5 8,6 10 5 22 12 NW 1034,9 19 60 0,0
26.03.2019 10:00:00 8,1 3,9 9,5 7,5 8,6 8 4 13 7 NW 1035,0 19 45 0,0
26.03.2019 09:00:00 5,8 3,1 4,5 7,7 8,6 0 0 10 5 N 1034,6 19 34 0,2
26.03.2019 08:00:00 3,1 1,8 -0,5 7,8 8,6 7 4 11 6 N 1034,6 20 13 0,0
26.03.2019 07:00:00 1,8 0,2 -1,9 8,1 8,6 8 4 9 5 NNW 1034,5 20 0 0,0
26.03.2019 06:00:00 1,5 -0,4 -1,6 8,2 8,6 6 3 10 5 NNW 1034,6 20 0 0,0
26.03.2019 05:00:00 2,0 -0,1 -0,5 8,4 8,6 9 5 11 6 NW 1034,4 20 0 0,0
26.03.2019 04:00:00 3,3 1,0 0,9 8,5 8,6 5 3 9 5 WNW 1034,5 20 0 0,0
26.03.2019 03:00:00 4,2 1,6 2,3 8,7 8,6 7 4 12 7 NNW 1034,6 20 0 0,0
26.03.2019 02:00:00 4,4 1,6 2,7 8,8 8,6 6 3 11 6 NW 1034,6 20 0 0,0
26.03.2019 01:00:00 5,0 2,2 3,1 8,9 8,6 6 3 16 9 NNW 1034,8 20 0 0,0
26.03.2019 00:00:00 5,4 2,6 4,2 9,0 8,6 9 5 16 8 NW 1034,7 19 0 0,0
25.03.2019 23:00:00 6,2 3,0 4,9 9,2 8,6 9 5 23 12 NNW 1034,3 20 0 0,0
25.03.2019 22:00:00 6,8 3,0 5,4 9,3 8,5 13 7 20 11 N 1034,1 20 0 0,0
25.03.2019 21:00:00 6,8 2,5 5,2 9,4 8,5 12 7 22 12 N 1033,6 20 0 0,0
25.03.2019 20:00:00 7,2 2,1 5,8 9,5 8,5 9 5 30 16 NNW 1033,0 20 0 0,0
25.03.2019 19:00:00 8,7 1,6 8,0 9,5 8,5 22 12 32 17 N 1032,2 20 48 0,0
25.03.2019 18:00:00 9,7 1,3 9,6 9,4 8,5 23 12 41 22 N 1031,7 20 45 0,0
25.03.2019 17:00:00 9,6 2,0 10,3 9,2 8,5 24 13 43 23 N 1031,5 20 32 0,0
25.03.2019 16:00:00 9,6 1,2 9,8 9,1 8,5 23 12 41 22 N 1031,5 20 18 0,0
25.03.2019 15:00:00 10,1 1,7 10,7 8,8 8,5 25 14 39 21 N 1031,5 20 30 0,0
25.03.2019 14:00:00 10,4 2,2 11,7 8,5 8,5 25 13 37 20 N 1031,2 20 32 0,0
25.03.2019 13:00:00 10,0 1,9 11,5 8,3 8,5 21 12 41 22 N 1031,1 20 44 0,0
25.03.2019 12:00:00 9,5 2,3 11,5 8,1 8,5 26 14 38 20 NNW 1030,8 20 47 0,0
25.03.2019 11:00:00 9,2 2,5 9,4 8,1 8,5 26 14 58 31 N 1030,5 18 32 0,0
25.03.2019 10:00:00 8,7 2,5 9,3 8,1 8,5 27 15 40 22 NNW 1030,0 20 56 0,0
25.03.2019 09:00:00 7,3 1,6 6,5 8,2 8,5 31 17 42 23 NNW 1029,2 19 56 0,0
25.03.2019 08:00:00 6,8 2,1 5,8 8,3 8,5 21 11 39 21 NW 1028,5 20 51 0,0
25.03.2019 07:00:00 6,6 2,3 5,1 8,4 8,5 21 12 35 19 NW 1028,0 20 0 0,0
25.03.2019 06:00:00 6,5 2,6 5,1 8,5 8,5 21 11 34 19 NW 1027,4 20 0 0,0
25.03.2019 05:00:00 6,4 3,7 3,2 8,7 8,5 16 9 29 16 WNW 1027,3 20 0 0,0
25.03.2019 04:00:00 5,6 2,9 3,0 8,9 8,5 15 8 22 12 WNW 1027,3 20 0 0,0
25.03.2019 03:00:00 4,6 3,1 2,8 9,1 8,5 11 6 15 8 WNW 1027,6 17 0 0,0
25.03.2019 02:00:00 5,2 4,0 3,3 9,3 8,5 9 5 15 8 W 1027,9 11 0 0,0
25.03.2019 01:00:00 5,2 4,0 2,9 9,5 8,5 10 5 13 7 W 1027,9 10 0 0,0
25.03.2019 00:00:00 4,7 2,6 3,0 9,7 8,5 10 6 13 7 WSW 1028,4 20 0 0,0
24.03.2019 23:00:00 5,2 2,2 3,5 10,0 8,5 6 3 13 7 WSW 1028,6 20 0 0,0
24.03.2019 22:00:00 5,0 1,8 3,8 10,2 8,5 10 6 16 9 W 1029,0 20 0 0,0
24.03.2019 21:00:00 5,8 2,8 4,6 10,4 8,5 11 6 17 9 W 1029,1 20 0 0,0
24.03.2019 20:00:00 6,5 2,8 5,2 10,4 8,5 11 6 18 10 W 1029,2 20 0 0,0
24.03.2019 19:00:00 8,0 3,3 7,2 10,5 8,5 14 7 23 12 W 1028,7 20 38 0,0
24.03.2019 18:00:00 10,0 2,8 11,7 10,3 8,4 19 11 27 14 W 1028,5 20 60 0,0
24.03.2019 17:00:00 11,4 3,2 14,0 10,0 8,4 15 8 26 14 WNW 1028,4 20 60 0,0
24.03.2019 16:00:00 12,1 2,3 17,0 9,8 8,4 13 7 21 12 N 1028,8 19 60 0,0
24.03.2019 15:00:00 11,7 2,7 14,0 9,5 8,4 17 9 28 15 N 1029,0 20 46 0,0
24.03.2019 14:00:00 11,4 3,4 12,8 9,2 8,4 16 9 29 15 NNW 1029,5 20 34 0,0
24.03.2019 13:00:00 11,6 4,1 14,4 8,9 8,4 20 11 31 17 NNW 1029,6 20 47 0,0
24.03.2019 12:00:00 11,3 4,5 15,9 8,7 8,4 14 8 21 12 NNW 1029,8 20 60 0,0
24.03.2019 11:00:00 10,8 3,8 14,8 8,6 8,4 7 4 18 10 NW 1029,8 20 60 0,0
24.03.2019 10:00:00 9,0 4,0 9,0 8,6 8,4 15 8 18 10 NNW 1030,2 20 12 0,0
24.03.2019 09:00:00 7,9 4,3 7,2 8,6 8,4 7 4 19 11 NNW 1029,9 18 2 0,0
24.03.2019 08:00:00 7,0 3,6 6,2 8,7 8,4 11 6 16 9 E 1029,1 20 0 0,0
24.03.2019 07:00:00 6,8 3,6 6,1 8,8 8,4 10 6 21 12 NE 1029,5 19 0 0,0
24.03.2019 06:00:00 6,8 3,4 6,2 8,9 8,4 14 7 24 13 NE 1029,6 20 0 0,0
24.03.2019 05:00:00 6,9 3,7 6,2 8,9 8,4 14 8 26 14 NNE 1029,6 20 0 0,0
24.03.2019 04:00:00 6,9 4,0 6,2 9,0 8,4 15 8 27 14 NNE 1029,6 17 0 0,0
24.03.2019 03:00:00 7,1 3,9 6,6 9,1 8,4 16 9 24 13 NE 1029,9 20 0 0,0
24.03.2019 02:00:00 7,4 3,8 6,9 9,1 8,4 8 4 23 12 NE 1030,3 20 0 0,0
24.03.2019 01:00:00 7,7 4,5 7,0 9,2 8,4 11 6 21 11 NNE 1030,4 20 0 0,0
24.03.2019 00:00:00 7,9 4,5 7,0 9,3 8,4 16 9 24 13 NNE 1030,5 20 0 0,0
23.03.2019 23:00:00 8,1 4,7 7,4 9,4 8,4 16 8 24 13 NNE 1030,7 20 0 0,0
23.03.2019 22:00:00 8,5 5,1 7,5 9,5 8,4 15 8 23 12 NE 1031,2 20 0 0,0
23.03.2019 21:00:00 8,8 5,2 8,1 9,5 8,4 14 8 22 12 NE 1031,1 20 0 0,0
23.03.2019 20:00:00 9,1 6,4 8,5 9,5 8,4 14 8 23 12 NE 1031,0 20 0 0,0
23.03.2019 19:00:00 9,4 6,7 8,7 9,5 8,4 16 9 25 13 NNE 1030,9 17 0 0,0
23.03.2019 18:00:00 9,8 7,7 9,1 9,5 8,4 18 10 28 15 NNE 1030,8 8 0 0,0
23.03.2019 17:00:00 10,4 8,8 10,2 9,3 8,4 7 4 14 8 NW 1030,8 3,8 0 0,0
23.03.2019 16:00:00 10,8 8,6 11,0 9,2 8,4 9 5 13 7 W 1030,9 4,3 0 0,0
23.03.2019 15:00:00 11,7 6,6 13,0 9,1 8,4 7 4 11 6 NNE 1031,0 12 0 0,0
23.03.2019 14:00:00 11,2 8,2 11,3 8,9 8,4 4 2 13 7 NW 1031,3 6 0 0,0
23.03.2019 13:00:00 10,5 8,6 11,1 8,9 8,4 9 5 15 8 NNW 1031,5 5 0 0,0
23.03.2019 12:00:00 9,9 8,7 9,8 8,8 8,4 10 5 15 8 WNW 1031,4 3,3 0 0,0
23.03.2019 11:00:00 9,2 8,1 9,2 8,8 8,4 8 4 11 6 NW 1031,5 3,1 0 0,0
23.03.2019 10:00:00 8,7 7,6 8,5 8,7 8,4 7 4 11 6 W 1031,2 3,6 0 0,0
23.03.2019 09:00:00 8,3 7,4 7,7 8,8 8,4 6 3 8 4 WNW 1031,0 3,4 0 0,0
23.03.2019 08:00:00 7,7 6,8 6,9 8,8 8,4 0 0 4 2 N 1030,8 2,9 0 0,0
23.03.2019 07:00:00 7,5 6,6 6,9 8,8 8,4 4 2 7 4 WNW 1030,2 2,9 0 0,0
23.03.2019 06:00:00 7,5 6,6 6,9 8,9 8,4 0 0 4 2 N 1029,8 2,9 0 0,0
23.03.2019 05:00:00 7,4 6,5 6,8 8,9 8,4 3 2 9 5 S 1029,6 2,6 0 0,0
23.03.2019 04:00:00 7,3 6,4 6,6 9,0 8,4 4 2 8 4 S 1029,5 2,4 0 0,0
23.03.2019 03:00:00 7,2 6,3 6,5 9,0 8,4 5 3 9 5 S 1029,6 2,4 0 0,0
23.03.2019 02:00:00 7,2 6,3 6,6 9,1 8,4 4 2 8 5 S 1029,9 2,5 0 0,0
23.03.2019 01:00:00 7,1 6,2 6,6 9,2 8,4 3 2 10 5 SSW 1029,6 2,4 0 0,0
23.03.2019 00:00:00 7,0 6,1 6,4 9,3 8,4 8 4 18 10 WNW 1029,7 2,4 0 0,0
22.03.2019 23:00:00 7,0 6,3 6,3 9,4 8,3 13 7 18 10 WNW 1029,7 2,9 0 0,0
22.03.2019 22:00:00 6,7 6,1 6,1 9,4 8,3 12 6 18 10 WNW 1029,6 1,8 0 0,0
22.03.2019 21:00:00 6,5 5,6 6,1 9,5 8,4 9 5 16 8 WNW 1029,4 1,4 0 0,0
22.03.2019 20:00:00 7,0 5,9 6,8 9,5 8,4 10 5 14 7 WNW 1029,4 2,5 0 0,0
22.03.2019 19:00:00 7,4 6,0 7,3 9,5 8,3 11 6 17 9 WNW 1028,8 3,0 0 0,0
22.03.2019 18:00:00 8,2 6,7 8,7 9,4 8,4 10 6 20 11 WNW 1028,5 3,5 19 0,0
22.03.2019 17:00:00 9,0 7,1 9,9 9,1 8,3 14 7 22 12 NW 1028,5 3,6 23 0,0
22.03.2019 16:00:00 9,7 7,6 12,0 8,9 8,3 8 4 16 8 NW 1028,5 3,7 5 0,0
22.03.2019 15:00:00 10,0 8,1 12,0 8,7 8,3 5 3 11 6 W 1028,7 4,3 8 0,0
22.03.2019 14:00:00 9,0 7,9 10,4 8,6 8,3 6 3 12 7 NW 1029,2 3,3 0 0,0
22.03.2019 13:00:00 8,3 7,7 9,9 8,4 8,3 4 2 9 5 WNW 1029,8 2,5 0 0,0
22.03.2019 12:00:00 7,3 6,9 7,9 8,4 8,3 4 2 8 5 WNW 1030,1 2,1 0 0,0
22.03.2019 11:00:00 7,2 6,9 7,6 8,3 8,3 3 2 6 4 W 1030,4 2,1 0 0,0
22.03.2019 10:00:00 6,6 6,3 7,1 8,3 8,3 2 1 7 4 N 1030,6 1,2 0 0,0
22.03.2019 09:00:00 6,4 6,1 6,3 8,3 8,3 4 2 6 3 NNW 1030,7 0,9 0 0,0
22.03.2019 08:00:00 6,4 6,1 6,1 8,3 8,3 3 2 7 4 N 1030,6 0,2 0 0,0
22.03.2019 07:00:00 6,4 6,1 6,0 8,4 8,3 2 1 8 4 ENE 1030,3 0,2 0 0,0
22.03.2019 06:00:00 6,6 6,2 6,2 8,4 8,3 6 3 9 5 E 1030,2 0,2 0 0,0
22.03.2019 05:00:00 6,7 6,3 6,3 8,5 8,3 5 3 10 5 ENE 1030,4 0,1 0 0,0
22.03.2019 04:00:00 6,7 6,1 6,2 8,5 8,3 4 2 10 6 E 1030,6 0,2 0 0,0
22.03.2019 03:00:00 6,6 6,0 4,2 8,7 8,3 5 3 9 5 ENE 1031,1 0,3 0 0,0
22.03.2019 02:00:00 6,0 5,1 2,9 8,8 8,3 2 1 6 4 NE 1031,7 4,3 0 0,0
22.03.2019 01:00:00 6,9 6,0 3,8 8,9 8,3 3 2 9 5 NNE 1032,2 10 0 0,0
22.03.2019 00:00:00 6,2 5,0 3,7 9,0 8,3 4 2 8 4 N 1032,5 7 0 0,0
21.03.2019 23:00:00 7,1 5,6 5,4 9,1 8,3 5 3 11 6 N 1032,8 9 0 0,0
21.03.2019 22:00:00 7,6 6,2 4,4 9,2 8,3 9 5 11 6 N 1033,0 14 0 0,0
21.03.2019 21:00:00 8,5 6,8 7,2 9,2 8,3 5 3 9 5 NNW 1033,0 18 0 0,0
21.03.2019 20:00:00 9,0 6,8 8,4 9,2 8,3 6 4 12 6 NW 1033,1 20 0 0,0
21.03.2019 19:00:00 9,5 6,6 9,2 9,2 8,3 7 4 11 6 WNW 1033,2 20 0 0,0
21.03.2019 18:00:00 9,8 6,9 9,8 9,1 8,3 8 4 16 9 WNW 1033,1 20 0 0,0
21.03.2019 17:00:00 10,1 7,0 10,5 9,0 8,3 8 4 13 7 WNW 1033,2 20 0 0,0
21.03.2019 16:00:00 10,0 7,2 10,6 8,8 8,3 4 2 12 7 NW 1033,5 20 0 0,0
21.03.2019 15:00:00 9,8 7,6 10,4 8,7 8,2 6 3 14 8 W 1034,2 20 0 0,0
21.03.2019 14:00:00 10,0 8,3 10,9 8,6 8,3 10 5 14 8 NW 1034,6 20 0 0,0
21.03.2019 13:00:00 9,9 8,0 10,8 8,4 8,3 11 6 16 9 WNW 1035,1 19 0 0,0
21.03.2019 12:00:00 9,8 8,2 10,7 8,3 8,3 9 5 13 7 WNW 1035,4 19 0 0,0
21.03.2019 11:00:00 9,6 8,8 9,4 8,2 8,3 6 3 8 4 W 1035,5 19 0 0,0
21.03.2019 10:00:00 8,0 7,7 7,5 8,2 8,3 6 4 9 5 SSE 1035,5 11 0 0,0
21.03.2019 09:00:00 6,6 6,3 5,9 8,2 8,3 7 4 11 6 SSE 1035,3 5 0 0,0
21.03.2019 08:00:00 5,4 5,1 4,8 8,3 8,3 8 4 11 6 SE 1035,2 3,2 0 0,0
21.03.2019 07:00:00 4,8 4,5 4,6 8,4 8,3 5 3 8 4 SE 1034,9 3,3 0 0,0
21.03.2019 06:00:00 4,7 4,4 4,1 8,5 8,3 2 1 5 3 ESE 1034,8 2,6 0 0,0
21.03.2019 05:00:00 4,1 3,8 3,1 8,7 8,3 2 1 6 3 ESE 1034,7 0,3 0 0,2
21.03.2019 04:00:00 3,6 3,3 3,1 8,8 8,3 5 3 8 5 SE 1034,5 0,1 0 0,0
21.03.2019 03:00:00 3,8 3,5 3,3 8,9 8,3 4 2 7 4 SE 1034,7 0,1 0 0,0
21.03.2019 02:00:00 4,3 3,9 3,5 9,0 8,3 3 2 6 3 SSE 1035,3 0,1 0 0,0
21.03.2019 01:00:00 4,9 4,5 4,2 9,1 8,3 0 0 4 2 N 1035,4 0,1 0 0,0
21.03.2019 00:00:00 5,8 5,4 5,5 9,2 8,3 0 0 6 3 N 1035,4 0,1 0 0,0
20.03.2019 23:00:00 6,0 5,6 5,6 9,3 8,3 2 1 8 5 S 1035,5 0,1 0 0,2
20.03.2019 22:00:00 6,4 5,8 5,9 9,4 8,3 2 1 5 3 W 1035,4 0,1 0 0,0
20.03.2019 21:00:00 7,3 6,6 6,7 9,5 8,3 4 2 11 6 WSW 1035,3 0,2 0 0,0
20.03.2019 20:00:00 7,6 6,5 6,5 9,5 8,3 7 4 15 8 W 1035,1 4,4 0 0,0
20.03.2019 19:00:00 8,9 7,0 8,2 9,4 8,3 11 6 19 11 WNW 1034,6 12 24 0,0
20.03.2019 18:00:00 11,3 6,8 13,2 9,2 8,2 15 8 22 12 NW 1034,1 20 58 0,0
20.03.2019 17:00:00 12,7 6,9 13,7 9,0 8,2 10 5 18 10 WNW 1033,8 20 57 0,0

tt = Température de l'air
td = dewpoint
tt 5cm = Température de l'air 5cm
tt -20cm = Température de l'air -20cm
tt -100cm = Température de l'air -100cm
ff = Vitesse du vent
fx = gusts
dd = Direction du vent
ppp = reduced air pressure
vv = visibility
sd = Ensoleillement
rr = Quantités de précipitations

stations d'obs. à proximité